Location: Geyern
(49.0718°N, 11.0876°E)
Time: 22:16:07
(UTC+00:00)

Daily predictions for brighter satellites

Satellite Brightness Start Highest point End
(mag) Time Altitude Azimuth Time Altitude Azimuth Time Altitude Azimuth
Cosmos 2151 Rocket 4.4 17:35:43 10° SSE 17:39:34 29° E 17:43:28 10° NNE
Cosmos 1975 Rocket 3.2 17:35:16 10° NNW 17:39:37 79° W 17:43:56 10° S
Lacrosse 5 rocket 3.0 17:35:54 10° WNW 17:39:41 29° N 17:43:38 10° ENE
HJ-1C 3.9 17:41:51 10° SE 17:44:54 37° ENE 17:48:00 10° N
Cosmos 2233 Rocket 4.5 17:39:52 10° SSW 17:46:03 68° WNW 17:52:13 10° N
COSMO-SKYMED 1 3.0 17:45:02 10° N 17:49:23 70° WNW 17:53:42 10° SSW
Nadezhda 4 Rocket 4.2 17:46:25 10° N 17:52:20 48° ENE 17:58:14 10° SSE
Cosmos 1689 Rocket 4.0 17:50:26 10° N 17:53:12 35° WNW 17:55:56 10° SW
Ariane Rocket 3.9 17:49:10 10° ESE 17:53:29 29° ENE 17:57:50 10° N
H-2A R/B 2.1 17:49:22 10° SSE 17:54:16 57° ENE 17:59:20 10° N
SJ 16-02 4.1 17:52:51 10° WSW 17:56:09 21° NW 17:59:28 10° N
Exosat Rocket 4.3 17:53:50 10° SSE 17:58:25 30° ESE 18:02:45 10° NE
Cosmos 2263 Rocket 3.4 17:54:06 10° SW 17:59:26 45° NW 18:04:49 10° NNE
USA 116 3.7 17:56:01 10° NNE 17:59:37 58° ESE 18:03:40 10° S
COSMOS 2406 4.2 17:56:34 10° NNW 18:01:34 30° NE 18:05:50 13° ESE
Cosmos 1844 Rocket 2.8 17:58:22 10° S 18:03:46 54° ESE 18:09:13 10° NE
Cosmos 1072 Rocket 4.5 17:57:42 10° S 18:03:58 75° E 18:10:21 10° NNE
Cosmos 1707 3.0 18:00:55 10° NNW 18:04:45 72° W 18:08:33 10° S
Cosmos 372 Rocket 4.1 18:00:22 10° SSW 18:05:37 86° WNW 18:10:53 10° NNE
Cosmos 1626 3.7 18:03:32 10° NNE 18:06:08 18° ENE 18:07:28 15° E
NOSS 3-2 (C) 4.1 17:59:23 10° NW 18:06:49 82° NE 18:15:16 10° SE
Cosmos 2278 Rocket 3.9 18:10:00 12° E 18:10:00 12° E 18:10:56 10° ENE
Cosmos 1844 3.9 18:05:46 10° S 18:11:13 50° ESE 18:16:39 10° NE
Cosmos 2034 Rocket 4.1 18:05:18 10° S 18:11:29 58° E 18:17:41 10° NNE
ISS -3.5 18:08:43 10° W 18:12:05 69° NNW 18:14:49 15° ENE
Meteor 2-5 Rocket 4.2 18:07:13 10° N 18:12:34 40° ENE 18:17:57 10° SE
NOSS 3-4 (A) 4.1 18:07:42 10° S 18:12:43 30° ESE 18:18:01 10° ENE
NOSS 3-4 (C) 4.1 18:07:49 10° S 18:12:51 30° ESE 18:18:07 10° ENE
USA 186 2.6 18:11:04 15° SE 18:13:17 32° ENE 18:16:16 10° N
Lacrosse 4 Rocket 3.3 18:12:08 10° N 18:14:40 16° NE 18:16:33 12° ENE
Meteor 1-12 Rocket 4.3 18:09:01 10° S 18:14:53 85° E 18:20:42 10° NNE
Meteor 1-24 Rocket 4.4 18:10:06 10° N 18:15:06 33° ENE 18:19:24 14° SE
Cosmos 1300 Rocket 3.6 18:15:44 10° S 18:20:10 85° W 18:24:39 10° N
Okean 1 Rocket 3.6 18:19:17 10° SSE 18:23:25 38° E 18:27:34 10° NNE
SL-14 R/B 4.4 18:21:56 10° NNE 18:25:18 26° ENE 18:26:27 22° E
CENTAUR R/B 3.2 18:17:52 10° NW 18:25:53 87° SW 18:34:43 10° SE
Resurs 01 Rocket 3.2 18:25:52 17° ENE 18:26:51 18° ENE 18:29:55 10° NNE
Cosmos 2298 Rocket 4.1 18:21:34 10° SSW 18:26:54 84° WNW 18:32:17 10° NNE
Cosmos 1833 Rocket 3.5 18:21:58 10° NNW 18:27:07 34° NE 18:30:12 20° E
CSL-04 Rocket 4.2 18:27:01 10° S 18:32:24 62° WSW 18:37:55 10° NNW
Cosmos 1025 Rocket 3.8 18:29:50 10° NNW 18:34:08 54° W 18:38:24 10° S
Cosmos 1766 3.7 18:30:44 10° SSE 18:34:23 39° E 18:38:06 10° NNE
Okean 2 Rocket 3.7 18:30:19 10° SSW 18:34:45 61° WNW 18:39:11 10° N
YAOGAN 1 4.3 18:31:13 10° SSW 18:35:09 34° W 18:39:08 10° NNW
ATLAS 2AS CENTAUR R/B 3.3 18:27:48 10° S 18:35:12 45° ESE 18:42:35 10° NE
ATLAS 3B R/B 3.0 18:31:34 10° NW 18:38:14 52° NE 18:42:34 23° ESE
Cosmos 1634 Rocket 4.3 18:33:31 10° SSE 18:39:16 43° E 18:45:05 10° NNE
Abrixas rocket 2.8 18:38:55 10° W 18:41:34 36° SSW 18:42:11 31° S
SPOT 3 Rocket 4.2 18:40:10 25° ESE 18:42:19 36° ENE 18:46:59 10° N
ARIANE 5 R/B 4.4 18:42:31 16° ENE 18:42:31 16° ENE 18:45:04 10° NNE
CREW DRAGON DEMO-1 DEB 3.6 18:40:31 10° WNW 18:43:24 42° SSW 18:44:16 32° SSE
Cosmos 1536 Rocket 4.2 18:39:31 10° NNW 18:43:55 58° W 18:48:18 10° S
Cosmos 1125 Rocket 3.5 18:42:12 10° SSW 18:47:32 88° WNW 18:52:54 10° NNE
Resurs 1-3 4.1 18:48:54 33° ESE 18:50:04 40° ENE 18:54:11 10° N
SJ-6B 2.6 18:48:31 30° SSE 18:50:15 68° ENE 18:54:03 10° N
Cosmos 1892 Rocket 4.1 18:46:41 10° N 18:50:44 37° ENE 18:51:24 34° E
CZ-4 R/B 4.3 18:49:55 10° SW 18:52:57 19° W 18:56:00 10° NW
Cosmos 2195 Rocket 4.4 18:47:59 10° N 18:54:16 76° E 19:00:07 11° SSE
Cosmos 1627 Rocket 4.5 18:49:26 10° N 18:55:52 71° ENE 19:01:24 14° SSE
Cosmos 1674 3.3 18:52:32 10° NNW 18:56:20 56° W 19:00:04 10° S
Cosmos 2026 Rocket 4.0 18:50:44 10° N 18:57:08 69° ENE 19:02:16 16° SSE
Cosmos 1092 Rocket 3.9 18:51:06 10° N 18:57:19 87° E 19:03:33 10° S
Cosmos 2285 Rocket 3.9 18:51:56 10° SSW 18:58:16 87° ESE 19:04:40 10° NNE
MOS 1 Rocket 3.9 18:58:05 10° N 19:02:22 53° WNW 19:06:32 10° SSW
FREGAT/IRIS 3.1 19:04:41 48° NNW 19:04:41 48° NNW 19:06:42 10° NNW
Cosmos 1428 Rocket 4.4 18:59:24 10° N 19:05:42 75° E 19:10:06 20° SSE
TSX-5 3.9 19:05:31 10° SSW 19:09:24 75° ESE 19:14:28 10° NE
ARGOS 4.2 19:05:17 10° S 19:10:25 46° W 19:15:36 10° NNW
CZ-2C R/B 2.6 19:07:02 10° NNE 19:12:39 84° ESE 19:18:17 10° SSW
Cosmos 1340 Rocket 2.8 19:15:11 62° ENE 19:15:11 62° ENE 19:18:52 10° NNE
Cosmos 2279 Rocket 4.1 19:12:59 30° SSE 19:15:47 51° E 19:21:49 10° NNE
Cosmos 1733 3.2 19:13:48 18° SSW 19:16:35 78° W 19:20:26 10° N
MOS 1 4.5 19:13:05 16° S 19:17:42 73° WSW 19:23:26 10° NNW
Lacrosse 5 rocket 2.5 19:15:39 10° NW 19:19:46 36° NNE 19:20:43 33° NE
Cosmos 2082 Rocket 2.5 19:14:51 10° NNW 19:20:17 46° NE 19:21:17 42° E
Cosmos 2098 Rocket 4.2 19:13:53 10° N 19:20:22 45° ENE 19:21:19 42° E
DMSP B5D2-2 4.0 19:17:10 10° NNE 19:22:30 87° ESE 19:27:47 10° SSW
BREEZE-M R/B 3.2 19:16:21 10° WSW 19:24:20 77° SSE 19:24:25 77° SSE
Spot 2 Rocket 4.4 19:25:14 32° NE 19:25:14 32° NE 19:29:21 10° N
OBJECT-B 1.7 19:28:48 48° NW 19:28:48 48° NW 19:31:19 10° NNW
Cosmos 2142 Rocket 4.4 19:24:37 18° S 19:29:28 73° E 19:35:40 10° NNE
Ariane Rocket 3.9 19:28:06 14° S 19:32:15 46° W 19:37:09 10° NNW
H-2A R/B 4.3 19:30:15 10° SW 19:34:05 22° W 19:38:02 10° NW
Terra 3.9 19:42:51 16° NE 19:42:51 16° NE 19:44:35 10° NNE
Cosmos 1626 3.3 19:38:06 10° NNW 19:41:34 38° W 19:42:02 37° WSW
Okean 1-7 Rocket 3.6 19:37:25 10° N 19:41:51 82° NNE 19:41:51 82° NNE
USA 186 4.5 19:42:34 13° SW 19:44:05 17° W 19:46:22 10° NW
Cosmos 1455 Rocket 4.0 19:47:18 38° NNE 19:47:18 38° NNE 19:50:03 10° NNE
COSMOS 2406 3.6 19:40:39 10° NW 19:46:13 58° WSW 19:47:55 41° SSW
SPOT 1/Viking Rocket 4.2 19:48:44 41° NE 19:48:44 41° NE 19:52:51 10° N
Cosmos 1844 Rocket 4.4 19:43:00 10° WSW 19:47:57 32° NW 19:52:57 10° NNE
ISS -1.8 19:45:49 10° WNW 19:47:46 30° WNW 19:47:46 30° WNW
Cosmos 2278 Rocket 2.0 19:45:56 10° SSW 19:51:35 77° ESE 19:57:15 10° NNE
Lacrosse 4 Rocket 2.2 19:49:53 10° NNW 19:52:52 47° NNW 19:52:52 47° NNW
Cosmos 909 Rocket 3.9 19:52:40 10° NW 19:59:15 81° NE 19:59:55 71° ESE
Cosmos 2266 Rocket 3.8 19:54:40 10° N 20:00:34 67° ENE 20:00:34 67° ENE
Meteor 2-19 Rocket 4.5 19:56:28 10° NNW 20:02:35 76° W 20:03:47 58° SSW
Resurs 01 Rocket 2.2 20:03:26 57° WNW 20:03:26 57° WNW 20:07:21 10° NNW
NOSS 3-4 (A) 3.7 19:57:13 10° SW 20:03:07 65° NW 20:09:33 10° NE
NOSS 3-4 (C) 3.7 19:57:19 10° SW 20:03:13 65° NW 20:09:40 10° NE
Cosmos 1833 Rocket 3.2 20:05:49 10° NW 20:11:16 50° WSW 20:11:54 48° SW
Cosmos 2251 Rocket 3.7 20:08:48 10° NNW 20:13:44 69° WNW 20:13:44 69° WNW
ERS-1 Rocket 4.1 20:17:40 34° NNE 20:17:40 34° NNE 20:20:47 10° N
ARIANE 5 R/B 3.9 20:20:05 37° NNW 20:20:05 37° NNW 20:22:47 10° NNW
ATLAS 2AS CENTAUR R/B 3.4 20:18:13 10° WSW 20:26:07 62° NW 20:33:52 10° NE
ATLAS 3B R/B 3.3 20:22:24 10° NW 20:28:57 48° WSW 20:29:50 46° SW
SPOT 5 4.1 20:33:48 39° N 20:33:48 39° N 20:37:15 10° N
Cosmos 1655 Rocket 4.5 20:31:07 10° NNW 20:37:13 55° W 20:37:49 53° WSW
Lacrosse 5 rocket 3.9 20:54:49 10° WNW 20:56:20 21° WNW 20:56:20 21° WNW
Cosmos 2082 Rocket 3.6 20:59:13 10° NW 21:03:08 31° W 21:03:08 31° W
Terra 4.1 21:21:45 22° NNW 21:21:45 22° NNW 21:23:25 10° NNW
Cosmos 2278 Rocket 4.2 21:33:01 15° W 21:36:17 25° NW 21:40:55 10° NNE
CZ-4C R/B 4.3 22:45:17 25° N 22:45:17 25° N 22:49:00 10° NE
Cosmos 2297 Rocket 4.5 22:54:25 10° NNW 22:56:26 20° N 22:56:26 20° N
Cosmos 2369 Rocket 4.5 23:10:31 20° N 23:10:31 20° N 23:12:22 10° NNE
SL-16 R/B 4.1 23:50:37 30° NNE 23:50:37 30° NNE 23:54:20 10° N
